Regional Weather Roundup
Issued by NWS Newport/Morehead, NC

Current Version | Previous Version | Text Only | Print | Product List | Glossary On
Versions: 1 2 3 4 5 6 7 8 9 10 11 12 13 14 15 16 17 18 19 20 21 22 23 24 25 26 27 28 29 30 31 32 33 34 35 36 37 38 39 40 41 42 43 44 45 46 47 48 49 50
000
ASUS42 KMHX 252210
RWRMHX
WEATHER ROUNDUP FOR EASTERN NORTH CAROLINA
NATIONAL WEATHER SERVICE NEWPORT/MOREHEAD CITY NC
500 PM EST TUE NOV 25 2014

NOTE: "FAIR" INDICATES FEW OR NO CLOUDS BELOW 12,000 FEET
WITH NO SIGNIFICANT WEATHER AND/OR OBSTRUCTIONS TO VISIBILITY

NCZ015>017-031-032-045>047-102-103-252300-
NORTH COAST

CITY           SKY/WX    TMP DP  RH WIND       PRES   REMARKS
EDENTON        LGT RAIN  60  58  95 CALM      30.04F
ELIZABETH CITY LGT RAIN  63  59  87 CALM      30.06R
KITTY HAWK     CLOUDY    60  59  98 CALM      30.04S FOG
MANTEO         CLOUDY    59  58  97 CALM      30.05S

$$

NCZ045>047-081-094-103-104-252300-
CENTRAL COAST

CITY           SKY/WX    TMP DP  RH WIND       PRES   REMARKS
FRISCO         CLOUDY    62  62 100 SE6       30.04F FOG
SWANQUARTER      N/A     59 N/A N/A CALM      30.00S

$$

NCZ095-097-098-100-101-252300-
SOUTHERN COAST

CITY           SKY/WX    TMP DP  RH WIND       PRES   REMARKS
BEAUFORT       CLOUDY    64  62  93 CALM      30.04R
CEDAR ISLAND     N/A     59 N/A N/A E3        30.06S
JACKSONVILLE   CLOUDY    66  61  84 VRB3      30.04R
PINEY ISLAND   CLOUDY    64  60  87 CALM      30.03R
WILMINGTON     LGT RAIN  65  63  93 N3        30.03R


$$

NCZ011>013-027>030-043-044-078>080-089-090>093-098-252300-
COASTAL PLAIN

CITY           SKY/WX    TMP DP  RH WIND       PRES   REMARKS
AHOSKIE        LGT RAIN  55  54  97 CALM      30.07S
CLINTON        LGT RAIN  62  62 100 CALM      30.04F
ELIZABETHTOWN  CLOUDY    63  63 100 CALM      30.04R FOG
GOLDSBORO      LGT RAIN  54  54  97 N6        30.05S
GREENVILLE     DRIZZLE   55  54  94 NW5       30.09R
HAVELOCK       CLOUDY    65  62  90 CALM      30.04F
KENANSVILLE    LGT RAIN  62  61  97 NW3       30.04S
KINSTON        CLOUDY    55  54  94 N9        30.07R
NEW BERN       CLOUDY    65  61  87 CALM      30.04F
RICHLANDS      CLOUDY    63  59  88 CALM      30.05R
ROCKY MOUNT    CLOUDY    53  51  93 CALM      30.08R
WASHINGTON     CLOUDY    58  57  96 N3        30.04F
WHITEVILLE     CLOUDY    63  63 100 CALM      30.02R FOG

$$

AMZ130-135-150-152-154-156-158-170-250-252-270-ANZ085-086-088-633-658-670-252300-
MARINE OBSERVATIONS

STATION/POSITION TIME  TEMP    WIND        PRES    WAVE   SWELL
                       AIR SEA DIR/SP/G            HT/PER HT/PER
                 (UTC) (F)     (DEG/KT/KT) (MB)    (FT/S) (FT/S)
CHESAPEAKE LIGHT 2100   54     350/ 19/ 19 1018.4
64 E VA BEACH    2200   63 64  240/  8/  8 1017.4    5/ 8   5/ 8
DUCK             2200   59 59  260/  7/  8 1017.0
2 E DUCK         2200      58                N/A     3/ 8
10 NE DUCK       2200      59                N/A     4/ 8   2/11
OREGON INLET     2200   60 58  140/  3/  8 1016.6
13E OREGON INLT  2200      62                N/A     4/ 9   2/11
HATTERAS CG      2200   63 63   60/  1/  2 1017.3
DIAMOND BUOY     2200   66      CALM  /  2 1017.4    5/ 8
17 S OCRACOKE    NOT AVBL
CAPE LOOKOUT     2100   63     100/  7/  7 1016.4
BEAUFORT LAB     2200   64 59   80/  3/  3 1016.1
30 SE NEW RIVER  2200   66 69   40/  6/  8 1016.6    4/ 8   3/ 8
5 SE WRIGHTSVLE  2100   58 59   90/  6/  6 1015.9
225 S CAPE HAT   2053   75 74  190/ 16/ 19 1018.0    6/ 7   3/10
41 SE CHARLESTON 2200   68 73   60/  8/  8 1014.8    4/ 9   3/ 9

$$



USA.gov is the U.S. government's official web portal to all federal, state and local government web resources and services.